sat.trackr.live / text

‹ back to catalog

STARLINK-4410

NORAD 53204 · 2022-084R

PAYLOAD ACTIVE UNKNOWN

§ Identity

Operator
Country
US
Launch date
2022-07-22
Launch site
AFWTR
Launch vehicle
Mass (kg)
RCS (m²)

Purposes: comms

External: N2YO · Heavens-Above · Gunter

§ Orbital elements

Epoch: 2026-09-19T23:20:51.101088Z

Period
93.69 min
Inclination
97.4764°
Eccentricity
0.0001233
Mean motion
15.36973778 rev/d
Perigee alt
454.2 km
Apogee alt
455.9 km
Semi-major
6,833.2 km
B*
3.6344e-5
RAAN
326.8022°
Arg perigee
219.9631°
Mean anomaly
140.1522°
Rev number
22,957

§ Raw data

STARLINK-44101 53204U 22084R   26262.97281367  .00001231  00000+0  36344-4 0  99912 53204  97.4764 326.8022 0001233 219.9631 140.1522 15.36973778229572

JSON: /api/v1/satellites/53204 · /tle

For live sub-satellite position, see the globe view (requires WebGL).

§ Visibility from observer

Set your observer location to see the next 7 days of passes ≥ 10°. The values pass through the URL so the page stays shareable.

No JS? Fill the form by hand. The geolocation button needs JavaScript.

§ Radio — SatNOGS DB

ModeDescriptionDownlinkUplink
CW Ku-band 11325 MHz beacon 11.325 GHz
CW Ku-band 11575 MHz beacon 11.575 GHz
CW Ku-band 11950 MHz beacon 11.950 GHz
CW Ku-band 12450 MHz beacon 12.450 GHz

4 transmitters · refreshed weekly from db.satnogs.org